Location: Prostejov
(49.4670°N, 17.1170°E)
Time: 12:06:31
(UTC+01:00)

ISS - Visible Passes

Search period start: 17 November 2025 00:00
Search period end: 27 November 2025 00:00
Orbit: 415 x 420 km, 51.6° (Epoch: 16 November)

Date Brightness Start Highest point End Pass type
(mag) Time Alt. Az. Time Alt. Az. Time Alt. Az.
17 Nov -2.2 16:38:15 10° SSW 16:40:59 23° SE 16:43:43 10° E visible
17 Nov -3.7 18:14:07 10° WSW 18:17:12 74° WSW 18:17:12 74° WSW visible
18 Nov -3.7 17:25:58 10° WSW 17:29:18 69° SSE 17:30:57 27° E visible
18 Nov -0.9 19:02:51 10° W 19:03:52 18° W 19:03:52 18° W visible
19 Nov -3.2 16:37:54 10° SW 16:41:08 48° SSE 16:44:23 10° ENE visible
19 Nov -3.4 18:14:34 10° W 18:17:34 58° NW 18:17:34 58° NW visible
20 Nov -3.8 17:26:15 10° W 17:29:36 74° NNW 17:31:12 28° ENE visible
20 Nov -0.8 19:03:14 10° WNW 19:04:07 17° WNW 19:04:07 17° WNW visible
21 Nov -3.8 16:37:58 10° WSW 16:41:18 88° S 16:44:40 10° ENE visible
21 Nov -3.1 18:14:55 10° W 18:17:44 50° NW 18:17:44 50° NW visible
22 Nov -3.5 17:26:32 10° W 17:29:51 58° N 17:31:19 29° ENE visible
22 Nov -0.8 19:03:26 10° WNW 19:04:13 16° WNW 19:04:13 16° WNW visible
23 Nov -3.6 16:38:07 10° W 16:41:27 64° N 16:44:48 10° ENE visible
23 Nov -3.1 18:15:05 10° WNW 18:17:48 51° NW 18:17:48 51° NW visible
24 Nov -3.6 17:26:41 10° WNW 17:30:00 59° N 17:31:22 31° ENE visible
24 Nov -0.7 19:03:29 10° WNW 19:04:17 16° WNW 19:04:17 16° WNW visible
25 Nov -3.5 16:38:13 10° W 16:41:32 56° N 16:44:50 10° E visible
25 Nov -3.3 18:15:04 10° WNW 18:17:52 59° W 18:17:52 59° W visible
26 Nov -3.9 17:26:37 10° WNW 17:29:58 77° NNE 17:31:31 29° E visible
26 Nov -0.7 19:03:32 10° W 19:04:26 16° W 19:04:26 16° W visible
